Location: Bacharowice
(49.9333°N, 19.5833°E)
Time: 23:57:49
(UTC+00:00)

SeaSat 1 - Pass Details

Date: 11 May 2021
Orbit: 745 x 746 km, 108.0° (Epoch: 21 June)

Event Time Altitude Azimuth Distance (km) Brightness Sun altitude
Rises 23:00:10 0° 31° (NNE) 3,202 6.8 -21.8°
Reaches altitude 10° 23:02:28 10° 33° (NNE) 2,274 5.8 -21.7°
Maximum altitude 23:07:24 71° 118° (ESE) 793 2.4 -21.6°
Enters shadow 23:08:32 52° 181° (S) 931 2.5 -21.6°
